DW6757 Weather Reports


Display with metric or nautical units.
time (UTC)temp
F
wind
direction
speed
MPH
gust
MPH
rain 1hr
in
rain 24hr
in
rain mn
in
humidity
%
barometer
mb
20260904091004 78 0 0.0 0.0 0.00 0.02 0.00 89 1012.3
20260904090505 78 0 0.0 0.0 0.00 0.02 0.00 89 1012.3
20260904090026 78 0 0.0 0.0 0.00 0.02 0.00 89 1012.3
20260904085505 78 0 0.0 0.0 0.00 0.02 0.00 89 1012.3
20260904085026 78 0 0.0 0.0 0.00 0.02 0.00 89 1012.3
20260904084526 78 0 0.0 0.0 0.00 0.02 0.00 89 1012.3
20260904084005 78 0 0.0 0.0 0.00 0.02 0.00 89 1012.3
20260904083504 78 0 0.0 0.0 0.00 0.02 0.00 89 1012.2
20260904083005 79 0 0.0 0.0 0.00 0.02 0.00 88 1012.2
20260904082504 79 0 0.0 0.0 0.00 0.02 0.00 88 1012.3
20260904082026 79 0 0.0 0.0 0.00 0.02 0.00 88 1012.2
20260904081504 79 0 0.0 0.0 0.00 0.02 0.00 88 1012.4
20260904081005 79 0 0.0 0.0 0.00 0.02 0.00 88 1012.4
20260904080504 79 0 0.0 0.0 0.00 0.02 0.00 88 1012.5
20260904080004 79 0 0.0 0.0 0.00 0.02 0.00 87 1012.5
20260904075504 79 0 0.0 0.0 0.00 0.02 0.00 87 1012.6
20260904075005 79 0 0.0 0.0 0.00 0.02 0.00 87 1012.5
20260904074505 79 0 0.0 0.0 0.00 0.02 0.00 87 1012.5
20260904074004 79 0 0.0 0.0 0.00 0.02 0.00 87 1012.5
20260904073504 80 0 0.0 0.0 0.00 0.02 0.00 87 1012.6
20260904073004 80 0 0.0 0.0 0.00 0.02 0.00 87 1012.8
20260904072504 80 0 0.0 0.0 0.00 0.02 0.00 87 1012.7
20260904072005 80 164 0.0 1.0 0.00 0.02 0.00 87 1012.7
20260904071505 80 164 0.0 2.0 0.00 0.02 0.00 86 1012.7
20260904071005 80 164 0.0 2.0 0.00 0.02 0.00 86 1012.7
20260904070505 80 164 0.0 2.0 0.00 0.02 0.00 86 1012.7
20260904070004 80 164 0.0 4.0 0.00 0.02 0.00 86 1012.8
20260904065504 80 175 1.0 4.0 0.00 0.02 0.00 86 1012.7
20260904065006 80 173 1.0 4.0 0.00 0.02 0.00 86 1012.8
20260904064505 80 166 2.0 4.0 0.00 0.02 0.00 86 1012.7
20260904064004 80 163 2.0 5.0 0.00 0.02 0.00 86 1012.9
20260904063505 80 166 2.0 5.0 0.00 0.02 0.00 85 1012.9
20260904063005 81 166 2.0 5.0 0.00 0.02 0.00 85 1012.9
20260904062504 81 164 2.0 5.0 0.00 0.02 0.00 85 1013.0
20260904062005 81 167 2.0 5.0 0.00 0.02 0.00 85 1013.1
20260904061526 81 172 2.0 5.0 0.00 0.02 0.00 85 1013.0
20260904061025 81 171 2.0 6.0 0.00 0.02 0.00 85 1013.1
20260904060505 81 165 3.0 6.0 0.00 0.02 0.00 84 1013.0
20260904060005 81 160 4.0 7.0 0.00 0.02 0.00 84 1013.0
20260904055504 81 159 4.0 9.0 0.00 0.02 0.00 84 1012.9
20260904055004 81 164 4.0 9.0 0.00 0.02 0.00 84 1013.0
20260904054504 81 168 4.0 9.0 0.00 0.02 0.00 83 1013.0
20260904054005 81 164 4.0 9.0 0.00 0.02 0.00 83 1013.0
20260904053504 82 167 4.0 8.0 0.00 0.02 0.00 83 1013.1
20260904053005 82 174 3.0 6.0 0.00 0.02 0.00 83 1013.1
20260904052505 82 165 3.0 7.0 0.00 0.02 0.00 82 1013.1
20260904052004 82 157 4.0 10.0 0.00 0.02 0.00 82 1013.1
20260904051526 82 159 4.0 10.0 0.00 0.02 0.00 82 1013.0
20260904051025 82 163 4.0 9.0 0.00 0.02 0.00 82 1013.0
20260904050504 82 161 4.0 11.0 0.00 0.02 0.00 81 1012.9
20260904050005 82 168 4.0 11.0 0.00 0.02 0.00 81 1012.8
20260904045505 82 176 4.0 9.0 0.00 0.02 0.02 81 1012.7
20260904045026 82 169 5.0 10.0 0.00 0.02 0.02 81 1012.7
20260904044504 82 167 5.0 10.0 0.00 0.02 0.02 80 1012.6
20260904044005 82 174 5.0 13.0 0.00 0.02 0.02 80 1012.4
20260904043504 82 164 6.0 13.0 0.00 0.02 0.02 79 1012.5
20260904043025 82 157 6.0 11.0 0.00 0.02 0.02 79 1012.4
20260904042504 82 158 5.0 9.0 0.00 0.02 0.02 78 1012.4
20260904042004 82 157 5.0 9.0 0.00 0.02 0.02 78 1012.4
20260904041504 83 155 5.0 11.0 0.00 0.02 0.02 77 1012.4
20260904041004 83 156 6.0 11.0 0.00 0.02 0.02 77 1012.4
20260904040504 83 160 6.0 13.0 0.00 0.02 0.02 77 1012.4
20260904040005 83 155 7.0 13.0 0.00 0.02 0.02 77 1012.5
20260904035525 83 149 7.0 14.0 0.00 0.02 0.02 76 1012.4
20260904035005 84 151 7.0 14.0 0.00 0.02 0.02 75 1012.3
20260904034505 84 151 7.0 13.0 0.00 0.02 0.02 74 1012.3
20260904034004 84 150 7.0 12.0 0.00 0.02 0.02 73 1012.2
20260904033504 84 148 7.0 12.0 0.00 0.02 0.02 72 1012.3
20260904033005 84 145 6.0 12.0 0.00 0.02 0.02 72 1012.2
20260904032525 84 146 7.0 12.0 0.00 0.02 0.02 71 1012.1
20260904032004 85 147 8.0 14.0 0.00 0.02 0.02 70 1012.1
20260904031525 85 147 8.0 14.0 0.00 0.02 0.02 70 1012.1
20260904031004 85 145 8.0 14.0 0.00 0.02 0.02 69 1011.8
20260904030505 85 146 8.0 14.0 0.00 0.02 0.02 69 1011.8
20260904030005 85 145 8.0 13.0 0.00 0.02 0.02 67 1011.7
20260904025504 86 139 7.0 13.0 0.00 0.02 0.02 66 1011.8
20260904025004 86 141 7.0 13.0 0.00 0.02 0.02 64 1011.6
20260904024504 86 140 7.0 14.0 0.00 0.02 0.02 62 1011.6
20260904024025 86 136 6.0 14.0 0.00 0.02 0.02 62 1011.4
20260904023504 86 137 6.0 14.0 0.00 0.02 0.02 62 1011.4
20260904023025 86 140 6.0 14.0 0.00 0.02 0.02 62 1011.2
20260904022504 86 141 6.0 11.0 0.00 0.02 0.02 63 1011.1
20260904022025 86 135 5.0 11.0 0.00 0.02 0.02 63 1011.1
20260904021504 86 129 5.0 9.0 0.00 0.02 0.02 64 1011.0
20260904021005 86 130 5.0 9.0 0.00 0.02 0.02 65 1010.9
20260904020504 86 131 4.0 9.0 0.00 0.02 0.02 66 1010.7
20260904020004 86 127 3.0 9.0 0.00 0.02 0.02 68 1010.7
20260904015525 86 120 3.0 7.0 0.00 0.02 0.02 68 1010.6
20260904015005 86 107 3.0 7.0 0.00 0.02 0.02 69 1010.6
20260904014504 86 107 2.0 6.0 0.00 0.02 0.02 68 1010.7
20260904014005 86 112 2.0 5.0 0.00 0.02 0.02 68 1010.6
20260904013504 86 114 2.0 7.0 0.00 0.02 0.02 67 1010.5
20260904013004 86 117 3.0 8.0 0.00 0.02 0.02 67 1010.6
20260904012504 87 120 3.0 8.0 0.00 0.02 0.02 66 1010.5
20260904012005 87 126 3.0 6.0 0.00 0.02 0.02 65 1010.4
20260904011504 87 134 3.0 6.0 0.00 0.02 0.02 65 1010.3
20260904011005 87 136 3.0 5.0 0.00 0.02 0.02 64 1010.2
20260904010504 87 135 3.0 7.0 0.00 0.02 0.02 64 1010.2
20260904010006 87 133 3.0 8.0 0.00 0.02 0.02 63 1010.2
20260904005504 88 128 3.0 8.0 0.00 0.02 0.02 63 1010.2
20260904005004 88 129 4.0 12.0 0.00 0.02 0.02 63 1010.1
20260904004504 88 136 5.0 14.0 0.00 0.02 0.02 62 1010.0
20260904004004 88 126 5.0 14.0 0.00 0.02 0.02 61 1010.0
20260904003504 89 110 4.0 12.0 0.00 0.02 0.02 61 1010.0
20260904003004 89 108 4.0 10.0 0.00 0.02 0.02 61 1009.9
20260904002525 89 108 5.0 13.0 0.00 0.02 0.02 61 1010.0
20260904002004 89 107 6.0 13.0 0.00 0.02 0.02 62 1009.9
20260904001504 89 103 6.0 13.0 0.00 0.02 0.02 63 1010.1
20260904001004 89 102 7.0 15.0 0.00 0.02 0.02 62 1010.1
20260904000504 90 99 7.0 15.0 0.00 0.02 0.02 61 1009.9
20260904000004 90 95 8.0 14.0 0.00 0.02 0.02 61 1009.9
20260903235504 90 92 8.0 15.0 0.00 0.02 0.02 60 1009.8
20260903235025 91 89 10.0 15.0 0.00 0.02 0.02 60 1009.6
20260903234504 91 87 12.0 19.0 0.00 0.02 0.02 59 1009.6
20260903234004 92 85 12.0 19.0 0.00 0.02 0.02 58 1009.4
20260903233526 92 84 12.0 19.0 0.00 0.02 0.02 56 1009.4
20260903233004 94 87 10.0 20.0 0.00 0.02 0.02 53 1009.4
20260903232505 95 91 9.0 19.0 0.00 0.02 0.02 50 1009.3
20260903232025 95 91 8.0 16.0 0.00 0.02 0.02 50 1009.2
20260903231505 95 88 8.0 15.0 0.00 0.02 0.02 49 1009.1
20260903231004 95 87 10.0 17.0 0.00 0.02 0.02 50 1009.1
20260903230525 94 92 7.0 17.0 0.00 0.02 0.02 50 1009.0
20260903230004 94 119 5.0 11.0 0.00 0.02 0.02 52 1009.1
20260903225525 94 120 7.0 14.0 0.00 0.02 0.02 53 1009.2
20260903225006 95 105 7.0 14.0 0.02 0.02 0.02 52 1009.4
20260903224505 95 90 6.0 14.0 0.02 0.02 0.02 52 1009.2
20260903224004 94 81 5.0 9.0 0.02 0.02 0.02 54 1009.0
20260903223505 93 78 4.0 9.0 0.02 0.02 0.02 53 1008.9
20260903223005 92 56 3.0 9.0 0.02 0.02 0.02 55 1009.0
20260903222505 92 8 2.0 7.0 0.02 0.02 0.02 55 1009.1
20260903222004 91 3 3.0 9.0 0.02 0.02 0.02 58 1009.1
20260903221504 91 337 4.0 9.0 0.02 0.02 0.02 58 1009.0
20260903221004 90 282 4.0 9.0 0.02 0.02 0.02 58 1009.0
20260903220525 90 271 5.0 9.0 0.02 0.02 0.02 61 1009.0
20260903220005 89 266 4.0 9.0 0.02 0.02 0.02 64 1009.1
20260903215504 92 223 3.0 8.0 0.02 0.02 0.02 61 1009.2
20260903215004 94 201 3.0 7.0 0.00 0.00 0.00 53 1009.1
20260903214504 94 118 3.0 11.0 0.00 0.00 0.00 53 1009.1
20260903214004 94 72 5.0 11.0 0.00 0.00 0.00 50 1009.0
20260903213504 94 74 6.0 13.0 0.00 0.00 0.00 51 1009.1
20260903213004 94 84 7.0 14.0 0.00 0.00 0.00 53 1009.1
20260903212504 97 92 8.0 14.0 0.00 0.00 0.00 48 1009.2
20260903212025 100 106 6.0 14.0 0.00 0.00 0.00 42 1009.1
20260903211505 100 156 5.0 13.0 0.00 0.00 0.00 41 1009.1
20260903211004 99 187 5.0 14.0 0.00 0.00 0.00 41 1009.1
20260903210525 99 191 5.0 14.0 0.00 0.00 0.00 41 1009.2
20260903210005 100 185 5.0 10.0 0.00 0.00 0.00 41 1009.3
20260903205504 100 159 5.0 10.0 0.00 0.00 0.00 40 1009.3
20260903205004 100 129 4.0 10.0 0.00 0.00 0.00 41 1009.4
20260903204504 100 138 3.0 8.0 0.00 0.00 0.00 41 1009.4
20260903204004 101 140 4.0 8.0 0.00 0.00 0.00 41 1009.6
20260903203504 101 149 3.0 8.0 0.00 0.00 0.00 41 1009.6
20260903203004 101 188 4.0 9.0 0.00 0.00 0.00 41 1009.7
20260903202505 101 155 4.0 9.0 0.00 0.00 0.00 40 1009.7
20260903202004 101 113 3.0 9.0 0.00 0.00 0.00 41 1009.8
20260903201504 101 140 3.0 9.0 0.00 0.00 0.00 39 1009.8
20260903201004 101 133 5.0 12.0 0.00 0.00 0.00 40 1010.0
20260903200504 101 145 5.0 12.0 0.00 0.00 0.00 40 1010.0
20260903200004 101 177 5.0 10.0 0.00 0.00 0.00 41 1010.1
20260903195504 100 178 4.0 10.0 0.00 0.00 0.00 42 1010.0
20260903195025 100 154 4.0 9.0 0.00 0.00 0.00 42 1010.1
20260903194504 100 158 4.0 9.0 0.00 0.00 0.00 41 1010.3
20260903194005 100 153 2.0 5.0 0.00 0.00 0.00 43 1010.2
20260903193525 100 159 3.0 9.0 0.00 0.00 0.00 42 1010.2
20260903193004 99 174 4.0 10.0 0.00 0.00 0.00 43 1010.4
20260903192504 99 207 4.0 10.0 0.00 0.00 0.00 43 1010.5
20260903192004 99 261 4.0 9.0 0.00 0.00 0.00 43 1010.5
20260903191504 99 255 3.0 9.0 0.00 0.00 0.00 43 1010.5
20260903191025 99 182 4.0 10.0 0.00 0.00 0.00 44 1010.7
20260903190504 99 191 6.0 12.0 0.00 0.00 0.00 43 1010.7
20260903190004 99 178 6.0 12.0 0.00 0.00 0.00 44 1010.8
20260903185525 98 166 4.0 11.0 0.00 0.00 0.00 43 1010.9
20260903185004 98 189 5.0 12.0 0.00 0.00 0.00 45 1011.1
20260903184504 98 191 5.0 12.0 0.00 0.00 0.00 46 1011.2
20260903184004 98 198 4.0 10.0 0.00 0.00 0.00 47 1011.3
20260903183504 98 210 5.0 10.0 0.00 0.00 0.00 47 1011.5
20260903183004 98 231 5.0 13.0 0.00 0.00 0.00 45 1011.5
20260903182504 98 216 5.0 13.0 0.00 0.00 0.00 45 1011.7
20260903182025 97 190 4.0 9.0 0.00 0.00 0.00 47 1011.6
20260903181504 96 200 5.0 11.0 0.00 0.00 0.00 48 1011.8
20260903181004 96 201 7.0 12.0 0.00 0.00 0.00 46 1011.9
20260903180525 96 189 7.0 12.0 0.00 0.00 0.00 47 1011.9
20260903180025 96 202 6.0 12.0 0.00 0.00 0.00 48 1011.9
20260903175525 96 214 6.0 12.0 0.00 0.00 0.00 48 1011.9
20260903175004 96 212 6.0 12.0 0.00 0.00 0.00 49 1012.0
20260903174504 95 202 7.0 13.0 0.00 0.00 0.00 51 1012.2
20260903174027 95 170 8.0 14.0 0.00 0.00 0.00 50 1012.2
20260903173504 94 166 7.0 14.0 0.00 0.00 0.00 50 1012.2
20260903173025 94 190 6.0 12.0 0.00 0.00 0.00 50 1012.4
20260903172504 94 191 6.0 13.0 0.00 0.00 0.00 55 1012.4
20260903172004 94 188 6.0 13.0 0.00 0.00 0.00 56 1012.6
20260903171504 94 193 6.0 12.0 0.00 0.00 0.00 55 1012.8
20260903171004 93 191 7.0 14.0 0.00 0.00 0.00 56 1012.9
20260903170504 93 189 7.0 14.0 0.00 0.00 0.00 57 1013.0
20260903170004 93 191 7.0 14.0 0.00 0.00 0.00 55 1013.0
20260903165504 93 212 6.0 14.0 0.00 0.00 0.00 59 1013.1
20260903165004 93 223 5.0 12.0 0.00 0.00 0.00 59 1013.2
20260903164504 92 230 5.0 12.0 0.00 0.00 0.00 59 1013.2
20260903164004 92 219 5.0 13.0 0.00 0.00 0.00 61 1013.3
20260903163504 92 187 6.0 13.0 0.00 0.00 0.00 61 1013.3
20260903163004 91 179 6.0 11.0 0.00 0.00 0.00 62 1013.3
20260903162504 91 199 5.0 12.0 0.00 0.00 0.00 62 1013.3
20260903162004 91 219 4.0 12.0 0.00 0.00 0.00 64 1013.4
20260903161504 90 220 5.0 11.0 0.00 0.00 0.00 64 1013.4
20260903161004 90 199 6.0 13.0 0.00 0.00 0.00 65 1013.4
20260903160525 90 192 5.0 13.0 0.00 0.00 0.00 66 1013.4
20260903160025 90 214 4.0 9.0 0.00 0.00 0.00 66 1013.3
20260903155525 89 201 6.0 13.0 0.00 0.00 0.00 67 1013.3
20260903155025 89 207 6.0 13.0 0.00 0.00 0.00 67 1013.3
20260903154504 89 229 5.0 12.0 0.00 0.00 0.00 67 1013.3
20260903154004 89 216 4.0 9.0 0.00 0.00 0.00 71 1013.4
20260903153504 88 213 5.0 12.0 0.00 0.00 0.00 71 1013.4
20260903153025 88 217 5.0 12.0 0.00 0.00 0.00 71 1013.5
20260903152525 87 219 4.0 7.0 0.00 0.00 0.00 73 1013.4
20260903152004 86 217 5.0 9.0 0.00 0.00 0.00 73 1013.4
20260903151504 87 213 5.0 11.0 0.00 0.00 0.00 72 1013.4
20260903151004 87 217 6.0 11.0 0.00 0.00 0.00 72 1013.3
20260903150525 86 217 7.0 13.0 0.00 0.00 0.00 73 1013.3
20260903150004 86 208 8.0 14.0 0.00 0.00 0.00 72 1013.3
20260903145504 86 206 7.0 14.0 0.00 0.00 0.00 73 1013.3
20260903145004 86 206 8.0 14.0 0.00 0.00 0.00 74 1013.4
20260903144504 86 207 8.0 15.0 0.00 0.00 0.00 74 1013.3
20260903144004 86 211 7.0 15.0 0.00 0.00 0.00 74 1013.4
20260903143504 85 219 7.0 13.0 0.00 0.00 0.00 75 1013.4
20260903143004 85 222 7.0 13.0 0.00 0.00 0.00 77 1013.3
20260903142525 84 225 7.0 13.0 0.00 0.00 0.00 77 1013.4
20260903142004 84 229 7.0 14.0 0.00 0.00 0.00 77 1013.3
20260903141504 84 221 6.0 14.0 0.00 0.00 0.00 77 1013.4
20260903141004 84 220 5.0 12.0 0.00 0.00 0.00 78 1013.4
20260903140504 84 224 6.0 12.0 0.00 0.00 0.00 79 1013.4
20260903140004 83 214 6.0 11.0 0.00 0.00 0.00 80 1013.5
20260903135504 83 205 6.0 11.0 0.00 0.00 0.00 81 1013.4
20260903135004 83 210 6.0 11.0 0.00 0.00 0.00 81 1013.5
20260903134504 83 220 5.0 11.0 0.00 0.00 0.00 82 1013.6
20260903134004 82 219 4.0 10.0 0.00 0.00 0.00 82 1013.5
20260903133504 82 208 5.0 9.0 0.00 0.00 0.00 83 1013.5
20260903133004 82 199 4.0 9.0 0.00 0.00 0.00 83 1013.6
20260903132504 82 199 4.0 9.0 0.00 0.00 0.00 83 1013.7
20260903132025 82 206 3.0 7.0 0.00 0.00 0.00 84 1013.6
20260903131504 82 205 4.0 7.0 0.00 0.00 0.00 84 1013.6
20260903131025 82 202 4.0 6.0 0.00 0.00 0.00 84 1013.6
20260903130504 82 201 4.0 7.0 0.00 0.00 0.00 84 1013.5
20260903130004 81 205 4.0 8.0 0.00 0.00 0.00 84 1013.5
20260903125504 81 208 4.0 8.0 0.00 0.00 0.00 84 1013.5
20260903125004 81 208 4.0 8.0 0.00 0.00 0.00 84 1013.4
20260903124504 81 208 4.0 7.0 0.00 0.00 0.00 84 1013.5
20260903124004 81 209 4.0 9.0 0.00 0.00 0.00 84 1013.3
20260903123504 81 207 5.0 9.0 0.00 0.00 0.00 85 1013.3
20260903123004 81 202 4.0 9.0 0.00 0.00 0.00 84 1013.2
20260903122525 81 200 4.0 7.0 0.00 0.00 0.00 84 1013.2
20260903122004 81 198 5.0 9.0 0.00 0.00 0.00 84 1013.2
20260903121504 81 197 5.0 9.0 0.00 0.00 0.00 84 1013.2
20260903121004 81 200 5.0 10.0 0.00 0.00 0.00 84 1013.1
20260903120504 81 203 5.0 12.0 0.00 0.00 0.00 84 1013.1
20260903120004 81 201 5.0 12.0 0.00 0.00 0.00 84 1013.1
20260903115504 81 197 5.0 9.0 0.00 0.00 0.00 84 1013.1
20260903115004 81 201 5.0 9.0 0.00 0.00 0.00 84 1013.0
20260903114504 81 198 5.0 10.0 0.00 0.00 0.00 84 1012.9
20260903114003 81 198 5.0 10.0 0.00 0.00 0.00 84 1012.8
20260903113504 81 202 5.0 10.0 0.00 0.00 0.00 84 1012.7
20260903113004 81 199 5.0 9.0 0.00 0.00 0.00 84 1012.7
20260903112504 81 195 5.0 10.0 0.00 0.00 0.00 84 1012.8
20260903112025 81 193 5.0 10.0 0.00 0.00 0.00 84 1012.8
20260903111504 82 194 5.0 8.0 0.00 0.00 0.00 84 1012.9
20260903111004 82 199 6.0 11.0 0.00 0.00 0.00 84 1012.7
20260903110504 82 192 6.0 11.0 0.00 0.00 0.00 84 1012.8
20260903110004 82 190 7.0 12.0 0.00 0.00 0.00 84 1012.7
20260903105504 82 192 7.0 12.0 0.00 0.00 0.00 83 1012.7
20260903105004 82 192 7.0 12.0 0.00 0.00 0.00 83 1012.8
20260903104504 82 193 7.0 11.0 0.00 0.00 0.00 83 1012.8
20260903104004 82 192 6.0 11.0 0.00 0.00 0.00 83 1012.7
20260903103504 82 192 7.0 12.0 0.00 0.00 0.00 83 1012.8
20260903103004 82 196 7.0 12.0 0.00 0.00 0.00 83 1012.7
20260903102504 82 204 7.0 12.0 0.00 0.00 0.00 83 1012.7
20260903102004 82 204 7.0 12.0 0.00 0.00 0.00 83 1012.7
20260903101504 82 199 7.0 10.0 0.00 0.00 0.00 84 1012.8
20260903101004 82 198 6.0 11.0 0.00 0.00 0.00 84 1012.6
20260903100504 82 196 5.0 11.0 0.00 0.00 0.00 84 1012.5
20260903100004 82 188 5.0 8.0 0.00 0.00 0.00 85 1012.7
20260903095504 82 193 5.0 8.0 0.00 0.00 0.00 85 1012.9
20260903095003 82 200 4.0 9.0 0.00 0.00 0.00 85 1012.9
20260903094504 82 197 5.0 10.0 0.00 0.00 0.00 85 1012.8
20260903094003 82 195 5.0 10.0 0.00 0.00 0.00 85 1013.2
20260903093525 82 191 4.0 9.0 0.00 0.00 0.00 85 1012.8
20260903093004 82 189 4.0 10.0 0.00 0.00 0.00 85 1012.8
20260903092503 82 194 4.0 10.0 0.00 0.00 0.00 85 1012.8
20260903092004 82 193 4.0 9.0 0.00 0.00 0.00 85 1012.7
20260903091504 82 194 4.0 8.0 0.00 0.00 0.00 85 1012.7